Regional Weather Roundup
Issued by NWS San Diego, CA

Home | Current Version | Previous Version | Text Only | Print | Product List | Glossary On
Versions: 1 2 3 4 5 6 7 8 9 10 11 12 13 14 15 16 17 18 19 20 21 22 23 24 25 26 27 28 29 30 31 32 33 34 35 36 37 38 39 40 41 42 43 44 45 46 47 48 49 50
000
ASUS46 KSGX 202111
RWRSGX

SAN DIEGO HOURLY WEATHER ROUNDUP
NATIONAL WEATHER SERVICE SAN DIEGO CA
100 PM PST MON FEB 20 2017

NOTE: "FAIR" INDICATES FEW OR NO CLOUDS BELOW 12,000 FEET WITH NO
SIGNIFICANT WEATHER AND/OR OBSTRUCTIONS TO VISIBILITY.

CAZ042-043-060-061-PZZ750-775-202200-

GREATER SAN DIEGO AREA

CITY           SKY/WX    TMP DP  RH WIND       PRES   REMARKS
SAN DIEGO AP   MOSUNNY   67  48  50 SW8       30.25F
NATIONAL CITY    N/A     67  54  61 SW2       30.24F
CHULA VISTA      N/A     69  56  62 W7        30.16F
IMPERIAL BEACH SUNNY    N/A N/A N/A W12       30.24F
BROWN FIELD    SUNNY     68  53  58 W6        30.23F
MIRAMAR MCAS   MOSUNNY   68  52  56 CALM      30.23F
MONTGOMERY FLD LGT RAIN  66  50  56 CALM      30.24F

$$

NORTH SAN DIEGO COUNTY

CITY           SKY/WX    TMP DP  RH WIND       PRES   REMARKS
CAMP PENDLETON PTSUNNY   66  54  65 SW9       30.24F
OCEANSIDE AP   CLOUDY    65  52  62 W8        30.23F
OCEANSIDE HBR    N/A     61  51  68 W3        30.27F
VISTA            N/A     65  55  70 CALM      30.23F
CARLSBAD       CLOUDY    64  50  60 W10       30.23F
DEL MAR          N/A     65  54  66 W3        30.27F
LA JOLLA SCRIP   N/A     61  53  73 S2        30.25F
FALLBROOK        N/A     65  56  74 CALM      30.22F
ESCONDIDO        N/A     68  53  58 W3        30.25F
SAN MARCOS       N/A     70  54  56 NW8       30.26F

$$

EAST SAN DIEGO COUNTY

CITY           SKY/WX    TMP DP  RH WIND       PRES   REMARKS
RAMONA         PTSUNNY   64  53  67 W7        30.23F
SANTEE LAKES     N/A     68  55  62 CALM      30.23F
LA MESA          N/A     66  53  63 CALM      30.18F
JAMUL            N/A     65  54  68 CALM      30.25F
DESCANSO N       N/A     56  50  82 W5        30.24F
CAMPO            N/A     60  51  72 NW3       30.20F

$$

ORANGE COUNTY AND THE LOS ANGELES BASIN

CITY           SKY/WX    TMP DP  RH WIND       PRES   REMARKS
JOHN WAYNE AP  PTSUNNY   63  52  67 SW9       30.24F
LAGUNA BEACH     N/A     64  53  67 S5        30.20F
LAKE FOREST FR   N/A     63  50  63 SW2       30.15F
HUNTINGTON BCH   N/A     64  55  71 S7        30.26F
LOS ALAMITOS   CLOUDY    63  53  71 SE6       30.24F
FULLERTON      CLOUDY    63  53  70 S5        30.24F
LONG BEACH     CLOUDY    62  52  69 SE5       30.25F
L.A. AP        CLOUDY    59  54  83 SE9       30.25F
L.A. DOWNTOWN  CLOUDY    61  53  75 VRB3      30.25F

$$

THE INLAND EMPIRE

CITY           SKY/WX    TMP DP  RH WIND       PRES   REMARKS
CORONA         CLOUDY    62  52  69 CALM      30.25F
CHINO          CLOUDY    63  52  67 VRB3      30.26F
ONTARIO        PTSUNNY   61  51  70 VRB3      30.24F
RIVERSIDE AP   CLOUDY    64  53  67 VRB3      30.23F
MORENO VALLEY    N/A     63  57  80 CALM      28.35F
MARCH ARB      MOSUNNY   60  53  76 E3        30.23F
HORSETHIEF CYN   N/A     76  62  59 CALM      30.22F
PERRIS           N/A     63  53  70 SE2       30.26F
HEMET EAST       N/A     60  48  63 W1        30.31F
FRENCH VALLEY  MOCLDY    63  50  63 SE5       30.24F
TEMECULA         N/A     65  55  67 NW5       30.26F

$$

SAN BERNARDINO AND RIVERSIDE COUNTY MOUNTAINS

CITY           SKY/WX    TMP DP  RH WIND       PRES   REMARKS
BIG BEAR AP    MOSUNNY   46  37  71 SW13G21   30.28S
ANGELUS OAKS     N/A     48  45  87 CALM      30.25F
PINE COVE        N/A     50  47  88 NW3       30.29F

$$

SOUTHERN DESERT INCLUDING THE COACHELLA VALLEY

CITY           SKY/WX    TMP DP  RH WIND       PRES   REMARKS
PALM SPRINGS   SUNNY     67  52  58 VRB7      30.22F
PALM DESERT      N/A     71  52  51 E7          N/A
THERMAL        SUNNY     68  50  52 SE7       30.20F
BLYTHE         MOSUNNY   69  51  52 S13       30.21F
IMPERIAL AP    SUNNY     70  55  59 SE8       30.19F
EL CENTRO NAS  SUNNY     70  48  45 VRB3      30.21F
YUMA AZ        SUNNY     69  51  52 VRB6      30.21
MEXICALI       SUNNY     70  55  60 E7        30.21

$$

UPPER DESERT

CITY           SKY/WX    TMP DP  RH WIND       PRES   REMARKS
VICTORVILLE AP SUNNY     63  46  55 S14       30.18F
HESPERIA         N/A     60  49  65 W16       30.30F
PALMDALE       SUNNY     58  50  75 SW26G32   30.16F
LANCASTER      MOSUNNY   59  49  69 SW16      30.19S
EDWARDS AFB    SUNNY     61  49  66 SW23G33   30.14F
DAGGETT        SUNNY     66  47  50 VRB3      30.15F
29 PALMS N     MOSUNNY   64  46  52 SE12      30.25F
NEEDLES        CLOUDY    67  50  54 SE9       30.21F

$$

REGIONAL REPORTS

CITY           SKY/WX    TMP DP  RH WIND       PRES   REMARKS
SANTA BARBARA  CLOUDY    58  55  90 E15       30.21F
SANDBERG       LGT RAIN  47  46  97 S14G25    30.20F VSB<1/4
LAS VEGAS NV   PTSUNNY   64  44  48 S14G22    30.10F
PHOENIX AZ     PTSUNNY   66  45  46 SE3       30.23F
TIJUANA        MOSUNNY   66  52  59 N5        30.26F

$$

OFFSHORE ISLANDS

CITY           SKY/WX    TMP DP  RH WIND       PRES   REMARKS
CATALINA ARPT  FOG       53  53 100 S10       30.23F VSB<1/4
SAN NICOLAS IS CLOUDY   N/A N/A N/A S8        30.21F

$$

MARINE AND OFFSHORE BUOY REPORTS

STATION/POSITION SKY/WX   TEMP    WIND        PRES    VSBY  SWELL
                          AIR SEA DIR/SP/G                  HT/PER/DIR
                          (F)     (DEG/KT/KT) (MB)    (MI)  (FT/S/D)
TANNER BANKS               60 60  180/ 10/ 14 1023.3F         8/280/17
S CLEMENTE BASIN           59 60  180/  8/ 10 1024.3F         5/260/12
SAN NICOLAS IS.               57                N/A           7/300/17
SO. S. ROSA ISLA           58 57  170/  8/ 12 1022.2F         8/300/17
W. S. BARBARA CH           56 55  120/ 19/ 25 1021.7F         8/300/16
M. S. BARBARA CH                  100/ 19/ 25 1023.6F
S. MONICA BASIN            57 58  130/ 12/ 17 1023.5F         5/250/13
S PEDRO CHANNEL               59                N/A           3/270/12
CMP PENDLETON NS              60                N/A           2/240/12
OCEANSIDE OFFSHR              62                N/A           2/250/13
TORREY PINES OTR              61                N/A           3/260/13
POINT LOMA SOUTH              62                N/A           3/270/11

$$




USA.gov is the U.S. government's official web portal to all federal, state and local government web resources and services.